Location: Unspecified
(0.0000°N, 0.0000°E)
Time: 01:26:57
(UTC+00:00)

Tiangong 1 - Visible Passes

Search period start: 21 October 2017 00:00
Search period end: 31 October 2017 00:00
Orbit: 293 x 320 km, 42.8° (Epoch: 20 October)

Date Brightness Start Highest point End Pass type
(mag) Time Alt. Az. Time Alt. Az. Time Alt. Az.
22 Oct 4.3 19:32:55 10° W 19:33:15 12° W 19:33:15 12° W visible
23 Oct 0.8 18:07:22 10° NNW 18:09:57 50° NE 18:12:32 10° ESE visible
24 Oct 2.7 18:17:37 10° WNW 18:20:01 29° SW 18:22:23 10° SSE visible
27 Oct 2.1 04:22:19 33° SSE 04:22:32 34° SE 04:24:56 10° ENE visible
28 Oct 2.3 04:33:31 23° NNE 04:33:31 23° NNE 04:34:46 10° NNE visible
